Orbital Elements
Epoch 2014 Oct. 30.0 TT = JDT 2456960.5
T 2014 Oct. 13.56144 TT MPCW
q 2.4876603 (2000.0) P Q
n 0.08644200 Peri. 357.01150 +0.96614861 +0.25674171
a 5.0658562 Node 348.01998 -0.23409718 +0.83122728
e 0.5089359 Incl. 7.00353 -0.10842219 +0.49309726
P 11.4
From 223 observations 2003 Oct. 17-2014 Nov. 10, mean residual 0".5.
|